DELTA 1 DEB, 2977

Orbit data source: Space-Track

DELTA 1 DEB, 2977 is space debris in SSO originally from a launch on Thu, 20 Apr 1967 UTC launched from the Air Force Western Test Range (AFWTR). Debris objects in space refer to the collection of defunct objects orbiting the Earth. Examples of debris include non-operational satellites, rocket bodies, and fragments generated from explosions, collisions, or faulty payload assembly.

Loading next visibility...
Identifier
2977, 1967-036D
Orbit
SSO
Country
Flag of USUS
Related business
Manufacturer
Unknown
Mission
Spacecraft
Bus & Motor
Unknown
Mass
Unknown
Launch date (UTC)
1967-04-20 (58 years ago)
Launch vehicle
Unknown
Launch site
Air Force Western Test Range (AFWTR)
Object type
Payload
Rocket body
Debris
Shape & HBR
Unknown
Radar Cross Section
Small (<0.1 m²)

Expand to show TLE details & history
Last TLE update: 2 days ago

TLE from 2 days ago
0 DELTA 1 DEB
1 02977U 67036D   25256.85232937 -.00000018  00000-0  15590-3 0  9999
2 02977 101.5729 220.3789 0059881  87.1294 346.8452 12.56854735678677
Epoch: 2025-09-13T20:27Z
TLE epoch observation values (Epoch: 2025-09-13T20:27:21.257Z)
Latitude
70.27027°
Longitude
-114.16145°
Altitude
1,402.391 km
Speed
7.186 km/s
True Right ascension
12h 23m 01s
True Declination
70° 10' 11"
Sunlit
Object was in daylight at epoch
Visualization orbit readout
Latitude
Unknown
Longitude
Unknown
Altitude
Unknown
Speed
Unknown
Apparent Right ascension
Unknown
Apparent Declination
Unknown
Sunlit
N/A
Visualization observer readout
Local Sidereal Time
23:07:10
Azimuth
Unknown
Elevation
Unknown
Doppler factor
Unknown
Orbital elements
Apogee altitude
1,480.258 km
Perigee altitude
1,386.704 km
Semi-major axis
7,811.618 km
Eccentricity
0.00599
Inclination
101.5729°
RAAN
220.3789°
Arg. of periapsis
87.1294°
True anomaly
346.68789°
Mean anomaly
346.8452°
Eccentric anomaly
346.76666°
Mean motion
3.14363 °/min
Orbital period
114.52 mins
BSTAR
0.0001559
Loading maneuver chart data...
Computing Atmospheric mass density...
Loading historical data...
Loading historical data...
Loading historical data...
Loading historical data...
Loading historical data...
Loading historical data...
Loading historical data...
Other satellites on launch #36 in the year 1967 (1967-04-20 UTC)

Documentation

Showing up to 5 results
|